Location: Grust
(42.8833°N, 0.0333°W)
Time: 14:11:48
(UTC+00:00)

Meteor 2-10 Rocket - Pass Details

Date: 25 October 2020
Orbit: 733 x 885 km, 81.2° (Epoch: 24 November)

Event Time Altitude Azimuth Distance (km) Brightness Sun altitude
Rises 19:24:05 0° 203° (SSW) 3,336 7.0 -26.7°
Reaches altitude 10° 19:26:34 10° 208° (SSW) 2,384 6.2 -27.1°
Maximum altitude 19:31:47 51° 284° (WNW) 988 4.3 -28.1°
Drops below altitude 10° 19:36:50 10° 360° (N) 2,307 6.1 -29.0°
Sets 19:39:13 0° 6° (N) 3,219 6.8 -29.4°
